Météo par heure à Julianki

Ce jour, 20 Juin, Dimanche

Heure Température Précipitation Vent Pression Humidité
00:00 +22°C° 0.1 mm 3 m/s 749 mmHg 78%
01:00 +21°C° 0.1 mm 3 m/s 748 mmHg 79%
02:00 +21°C° 0 mm 3 m/s 748 mmHg 82%
03:00 +20°C° 0 mm 3 m/s 748 mmHg 85%
04:00 +19°C° 0 mm 3 m/s 748 mmHg 88%
05:00 +21°C° 0 mm 3 m/s 748 mmHg 82%
06:00 +22°C° 0 mm 4 m/s 748 mmHg 77%
07:00 +23°C° 0 mm 4 m/s 748 mmHg 71%
08:00 +26°C° 0 mm 4 m/s 748 mmHg 64%
09:00 +27°C° 0 mm 4 m/s 748 mmHg 57%
10:00 +28°C° 0 mm 4 m/s 748 mmHg 50%
11:00 +29°C° 0 mm 4 m/s 748 mmHg 47%
12:00 +30°C° 0 mm 4 m/s 748 mmHg 45%
13:00 +30°C° 0 mm 4 m/s 747 mmHg 42%
14:00 +32°C° 0 mm 4 m/s 747 mmHg 43%
15:00 +32°C° 0 mm 4 m/s 747 mmHg 43%
16:00 +32°C° 0 mm 4 m/s 746 mmHg 43%
17:00 +29°C° 0 mm 4 m/s 746 mmHg 51%
18:00 +28°C° 0 mm 3 m/s 746 mmHg 59%
19:00 +26°C° 0 mm 3 m/s 745 mmHg 67%
20:00 +25°C° 0 mm 3 m/s 746 mmHg 70%
21:00 +24°C° 0 mm 3 m/s 746 mmHg 74%
22:00 +22°C° 0 mm 3 m/s 746 mmHg 78%
23:00 +21°C° 0 mm 3 m/s 746 mmHg 81%

Demain, 21 Juin, Lundi

Heure Température Précipitation Vent Pression Humidité
00:00 +21°C° 0 mm 3 m/s 745 mmHg 84%
01:00 +20°C° 0 mm 3 m/s 745 mmHg 88%
02:00 +20°C° 0 mm 3 m/s 745 mmHg 89%
03:00 +20°C° 0 mm 3 m/s 745 mmHg 90%
04:00 +19°C° 0 mm 3 m/s 745 mmHg 90%
05:00 +21°C° 0 mm 3 m/s 745 mmHg 84%
06:00 +22°C° 0 mm 4 m/s 745 mmHg 78%
07:00 +25°C° 0 mm 5 m/s 745 mmHg 72%
08:00 +26°C° 0 mm 5 m/s 745 mmHg 67%
09:00 +27°C° 0 mm 5 m/s 744 mmHg 61%
10:00 +29°C° 0 mm 5 m/s 744 mmHg 56%
11:00 +29°C° 0 mm 4 m/s 744 mmHg 53%
12:00 +30°C° 0 mm 4 m/s 744 mmHg 49%
13:00 +31°C° 0 mm 3 m/s 744 mmHg 46%
14:00 +32°C° 0 mm 4 m/s 743 mmHg 47%
15:00 +32°C° 0 mm 4 m/s 743 mmHg 48%
16:00 +32°C° 0 mm 5 m/s 743 mmHg 49%
17:00 +29°C° 0.1 mm 4 m/s 743 mmHg 57%
18:00 +28°C° 0.1 mm 4 m/s 743 mmHg 65%
19:00 +26°C° 0.1 mm 4 m/s 743 mmHg 73%
20:00 +25°C° 0.3 mm 4 m/s 743 mmHg 79%
21:00 +22°C° 0.3 mm 4 m/s 744 mmHg 85%
22:00 +20°C° 0.3 mm 4 m/s 744 mmHg 91%
23:00 +20°C° 0.7 mm 3 m/s 744 mmHg 92%

Après-demain, 22 Juin, Mardi

Heure Température Précipitation Vent Pression Humidité
00:00 +20°C° 0.7 mm 3 m/s 744 mmHg 94%
01:00 +19°C° 0.7 mm 3 m/s 744 mmHg 95%
02:00 +19°C° 0.2 mm 3 m/s 744 mmHg 95%
03:00 +19°C° 0.2 mm 2 m/s 744 mmHg 95%
04:00 +19°C° 0.2 mm 2 m/s 744 mmHg 95%
05:00 +20°C° 0.1 mm 2 m/s 744 mmHg 93%
06:00 +20°C° 0.1 mm 2 m/s 745 mmHg 91%
07:00 +21°C° 0.1 mm 2 m/s 745 mmHg 89%
08:00 +22°C° 0 mm 3 m/s 746 mmHg 83%
09:00 +24°C° 0 mm 3 m/s 746 mmHg 78%
10:00 +25°C° 0 mm 3 m/s 746 mmHg 72%
11:00 +26°C° 0 mm 3 m/s 746 mmHg 68%
12:00 +27°C° 0 mm 3 m/s 746 mmHg 64%
13:00 +28°C° 0 mm 3 m/s 746 mmHg 60%
14:00 +28°C° 0 mm 3 m/s 746 mmHg 59%
15:00 +29°C° 0 mm 3 m/s 746 mmHg 58%
16:00 +29°C° 0 mm 2 m/s 746 mmHg 56%
17:00 +28°C° 0 mm 2 m/s 747 mmHg 61%
18:00 +27°C° 0 mm 2 m/s 747 mmHg 66%
19:00 +26°C° 0 mm 2 m/s 747 mmHg 71%
20:00 +25°C° 0 mm 2 m/s 747 mmHg 75%
21:00 +24°C° 0 mm 2 m/s 747 mmHg 79%
22:00 +21°C° 0 mm 2 m/s 747 mmHg 83%
23:00 +21°C° 0 mm 2 m/s 747 mmHg 87%

23 Juin, Mercredi

Heure Température Précipitation Vent Pression Humidité
00:00 +20°C° 0 mm 2 m/s 747 mmHg 90%
01:00 +20°C° 0 mm 3 m/s 747 mmHg 94%
02:00 +19°C° 0 mm 3 m/s 747 mmHg 95%
03:00 +19°C° 0 mm 3 m/s 747 mmHg 96%
04:00 +19°C° 0 mm 3 m/s 747 mmHg 97%
05:00 +20°C° 0.1 mm 3 m/s 747 mmHg 93%
06:00 +21°C° 0.1 mm 3 m/s 747 mmHg 88%
07:00 +24°C° 0.1 mm 3 m/s 747 mmHg 84%
08:00 +25°C° 0 mm 3 m/s 747 mmHg 79%
09:00 +26°C° 0 mm 3 m/s 747 mmHg 75%
10:00 +27°C° 0 mm 3 m/s 747 mmHg 70%
11:00 +29°C° 0.2 mm 3 m/s 747 mmHg 65%
12:00 +30°C° 0.2 mm 3 m/s 747 mmHg 60%
13:00 +31°C° 0.2 mm 2 m/s 747 mmHg 55%
14:00 +30°C° 0.2 mm 4 m/s 748 mmHg 58%
15:00 +30°C° 0.2 mm 5 m/s 748 mmHg 62%
16:00 +29°C° 0.2 mm 6 m/s 748 mmHg 65%
17:00 +27°C° 0.1 mm 5 m/s 749 mmHg 70%
18:00 +25°C° 0.1 mm 5 m/s 749 mmHg 75%
19:00 +22°C° 0.1 mm 5 m/s 749 mmHg 80%
20:00 +20°C° 0 mm 4 m/s 750 mmHg 81%
21:00 +19°C° 0 mm 4 m/s 750 mmHg 82%
22:00 +18°C° 0 mm 3 m/s 751 mmHg 83%
23:00 +17°C° 0 mm 4 m/s 751 mmHg 85%

24 Juin, Jeudi

Heure Température Précipitation Vent Pression Humidité
00:00 +15°C° 0 mm 4 m/s 751 mmHg 87%
01:00 +14°C° 0 mm 4 m/s 751 mmHg 90%
02:00 +13°C° 0 mm 3 m/s 751 mmHg 92%
03:00 +13°C° 0 mm 3 m/s 751 mmHg 94%
04:00 +13°C° 0 mm 2 m/s 751 mmHg 97%
05:00 +15°C° 0 mm 2 m/s 751 mmHg 91%
06:00 +16°C° 0 mm 2 m/s 751 mmHg 86%
07:00 +18°C° 0 mm 3 m/s 751 mmHg 81%
08:00 +19°C° 0 mm 2 m/s 752 mmHg 75%
09:00 +20°C° 0 mm 2 m/s 752 mmHg 70%
10:00 +23°C° 0 mm 2 m/s 752 mmHg 64%
11:00 +24°C° 0 mm 1 m/s 751 mmHg 60%
12:00 +25°C° 0 mm 1 m/s 751 mmHg 56%
13:00 +27°C° 0 mm 1 m/s 751 mmHg 51%
14:00 +27°C° 0 mm 1 m/s 750 mmHg 51%
15:00 +28°C° 0 mm 1 m/s 750 mmHg 50%
16:00 +28°C° 0 mm 1 m/s 750 mmHg 50%
17:00 +27°C° 0 mm 2 m/s 749 mmHg 56%
18:00 +26°C° 0 mm 2 m/s 749 mmHg 63%
19:00 +25°C° 0 mm 3 m/s 748 mmHg 69%
20:00 +22°C° 2.1 mm 3 m/s 748 mmHg 76%
21:00 +21°C° 2.1 mm 2 m/s 748 mmHg 83%
22:00 +20°C° 2.1 mm 2 m/s 748 mmHg 90%
23:00 +19°C° 5.5 mm 3 m/s 747 mmHg 92%

25 Juin, Vendredi

Heure Température Précipitation Vent Pression Humidité
00:00 +19°C° 5.5 mm 4 m/s 747 mmHg 94%
01:00 +19°C° 5.5 mm 5 m/s 746 mmHg 96%
02:00 +19°C° 0 mm 4 m/s 746 mmHg 96%
03:00 +19°C° 0 mm 3 m/s 746 mmHg 96%
04:00 +19°C° 0 mm 2 m/s 746 mmHg 96%
05:00 +19°C° 0 mm 3 m/s 747 mmHg 95%
06:00 +19°C° 0 mm 4 m/s 747 mmHg 93%
07:00 +19°C° 0 mm 4 m/s 748 mmHg 92%
08:00 +17°C° 0.1 mm 5 m/s 748 mmHg 92%
09:00 +16°C° 0.1 mm 5 m/s 749 mmHg 93%
10:00 +15°C° 0.1 mm 6 m/s 749 mmHg 93%
11:00 +16°C° 0 mm 6 m/s 750 mmHg 89%
12:00 +16°C° 0 mm 6 m/s 750 mmHg 85%
13:00 +17°C° 0 mm 6 m/s 750 mmHg 81%
14:00 +19°C° 0 mm 6 m/s 750 mmHg 77%
15:00 +19°C° 0 mm 6 m/s 751 mmHg 73%
16:00 +20°C° 0 mm 5 m/s 751 mmHg 69%
17:00 +19°C° 0 mm 5 m/s 751 mmHg 70%
18:00 +19°C° 0 mm 4 m/s 751 mmHg 71%
19:00 +18°C° 0 mm 4 m/s 751 mmHg 72%
20:00 +17°C° 0 mm 3 m/s 751 mmHg 76%
21:00 +16°C° 0 mm 2 m/s 751 mmHg 80%
22:00 +15°C° 0 mm 1 m/s 752 mmHg 83%
23:00 +15°C° 0 mm 1 m/s 752 mmHg 85%
Voir plus

Nous avons besoin de votre consentement

Meteoprog et ses fournisseurs de services peuvent stocker et accéder à des données personnelles telles que des cookies, des identifiants d'appareils ou d'autres technologies similaires sur votre appareil et traiter ces données pour personnaliser le contenu et les publicités, ainsi que pour fournir des fonctionnalités de médias sociaux et analyser le trafic.

  • Stocker et/ou accéder à des informations sur votre appareil

    Des cookies, des identifiants d'appareils ou d'autres informations peuvent être stockés ou accessibles sur votre appareil aux fins indiquées ci-dessus.

  • Annonces et contenus personnalisés, mesure des annonces et des contenus, connaissance de l'audience et développement de produits

    Les annonces et le contenu peuvent être personnalisés en fonction d'un profil. D'autres données peuvent être ajoutées pour mieux personnaliser les annonces et le contenu. Les performances des publicités et du contenu peuvent être mesurées. Il est possible d'obtenir des informations sur le public qui a vu les publicités et le contenu. Ces données peuvent être utilisées pour développer ou améliorer l'expérience de l'utilisateur, les systèmes et les logiciels.

En cliquant sur "J'accepte", vous autorisez l'utilisation de cookies, des identifiants d'appareils, des balises web ou d'autres technologies similaires. Vos paramètres peuvent être modifiés dans le navigateur de votre appareil.

Dans certains cas, des intérêts légitimes peuvent être invoqués plutôt qu'un consentement. Vous pouvez en savoir plus à ce sujet dans notre Politique de confidentialité et de cookies.